SALMON FALLS @ MILTON: From 07/08/2018 10:00 to 07/22/2018 22:00

Date STAGE [FT] FLOW [CFS] LAKE ELEVATION [FT] PRECIPITATION INCREMENT [IN] AIR TEMPERATURE [DEGF]
07/22/2018 17:00 -- -- -- 0.00 --
07/22/2018 16:00 2.42 -- 413.50 0.00 64.9
07/22/2018 15:00 2.42 15.7 413.51 0.00 64.0
07/22/2018 14:00 2.42 15.7 413.51 0.00 63.6
07/22/2018 13:00 2.43 16.3 413.49 0.00 62.7
07/22/2018 12:00 2.43 16.3 413.50 0.00 62.0
07/22/2018 11:00 2.43 16.3 413.51 0.00 61.9
07/22/2018 10:00 2.43 16.3 413.49 0.00 62.2
07/22/2018 09:00 2.42 15.7 413.49 0.00 62.2
07/22/2018 08:00 2.42 15.7 413.49 0.00 61.8
07/22/2018 07:00 2.43 16.3 413.49 0.00 61.7
07/22/2018 06:00 2.43 16.3 413.48 0.00 61.2
07/22/2018 05:00 2.43 16.3 413.48 0.00 60.2
07/22/2018 04:00 2.43 16.3 413.47 0.00 59.6
07/22/2018 03:00 2.43 16.3 413.50 0.00 59.5
07/22/2018 02:00 2.43 16.3 413.49 0.00 58.7
07/22/2018 01:00 2.43 16.3 413.48 0.00 58.2
07/22/2018 00:00 2.43 16.3 413.49 0.00 60.0
07/21/2018 23:00 2.43 16.3 413.49 0.00 61.1
07/21/2018 22:00 2.42 15.7 413.49 0.00 63.4
07/21/2018 21:00 2.42 15.7 413.49 0.00 66.0
07/21/2018 20:00 2.42 15.7 413.48 0.00 69.0
07/21/2018 19:00 2.42 15.7 413.48 0.00 72.2
07/21/2018 18:00 2.42 15.7 413.47 0.00 74.3
07/21/2018 17:00 2.42 15.7 413.48 0.00 75.1
07/21/2018 16:00 2.42 15.7 413.49 0.00 74.5
07/21/2018 15:00 2.42 15.7 413.50 0.00 73.6
07/21/2018 14:00 2.42 15.7 413.48 0.00 73.9
07/21/2018 13:00 2.42 15.7 413.49 0.00 73.5
07/21/2018 12:00 2.42 15.7 413.49 0.00 72.4
07/21/2018 11:00 2.42 15.7 413.50 0.00 67.8
07/21/2018 10:00 2.42 15.7 413.50 0.00 62.5
07/21/2018 09:00 2.42 15.7 413.50 0.00 58.9
07/21/2018 08:00 2.43 16.3 413.51 0.00 56.5
07/21/2018 07:00 2.43 16.3 413.51 0.00 54.8
07/21/2018 06:00 2.43 16.3 413.50 0.00 54.7
07/21/2018 05:00 2.43 16.3 413.50 0.00 55.4
07/21/2018 04:00 2.43 16.3 413.51 0.00 56.5
07/21/2018 03:00 2.43 16.3 413.51 0.00 57.9
07/21/2018 02:00 2.43 16.3 413.50 0.00 59.2
07/21/2018 01:00 2.43 16.3 413.50 0.00 60.0
07/21/2018 00:00 2.43 16.3 413.51 0.00 61.4
07/20/2018 23:00 2.42 15.7 413.50 0.00 63.9
07/20/2018 22:00 2.43 16.3 413.50 0.00 65.7
07/20/2018 21:00 2.43 16.3 413.50 0.00 69.7
07/20/2018 20:00 2.43 16.3 413.50 0.00 72.6
07/20/2018 19:00 2.43 16.3 413.50 0.00 75.7
07/20/2018 18:00 2.42 15.7 413.49 0.00 79.6
07/20/2018 17:00 2.43 16.3 413.48 0.00 80.8
07/20/2018 16:00 2.43 16.3 413.51 0.00 81.3
07/20/2018 15:00 2.43 16.3 413.50 0.00 81.6
07/20/2018 14:00 2.43 16.3 413.51 0.00 80.7
07/20/2018 13:00 2.43 16.3 413.52 0.00 79.7
07/20/2018 12:00 2.43 16.3 413.52 0.00 78.8
07/20/2018 11:00 2.42 15.7 413.51 0.00 73.5
07/20/2018 10:00 2.42 15.7 413.52 0.00 69.3
07/20/2018 09:00 2.43 16.3 413.52 0.00 64.0
07/20/2018 08:00 2.43 16.3 413.52 0.00 59.7
07/20/2018 07:00 2.42 15.7 413.52 0.00 56.5
07/20/2018 06:00 2.43 16.3 413.52 0.00 56.1
07/20/2018 05:00 2.42 15.7 413.53 0.00 56.6
07/20/2018 04:00 2.43 16.3 413.52 0.00 57.6
07/20/2018 03:00 2.43 16.3 413.53 0.00 58.1
07/20/2018 02:00 2.43 16.3 413.53 0.00 59.1
07/20/2018 01:00 2.43 16.3 413.52 0.00 59.6
07/20/2018 00:00 2.43 16.3 413.52 0.00 60.4
07/19/2018 23:00 2.43 16.3 413.52 0.00 62.2
07/19/2018 22:00 2.43 16.3 413.53 0.00 64.9
07/19/2018 21:00 2.43 16.3 413.52 0.00 69.2
07/19/2018 20:00 2.42 15.7 413.52 0.00 72.6
07/19/2018 19:00 2.42 15.7 413.52 0.00 76.3
07/19/2018 18:00 2.42 15.7 413.53 0.00 79.8
07/19/2018 17:00 2.41 15.1 413.52 0.00 78.3
07/19/2018 16:00 2.42 15.7 413.52 0.00 77.2
07/19/2018 15:00 2.42 15.7 413.53 0.00 76.6
07/19/2018 14:00 2.42 15.7 413.53 0.00 74.8
07/19/2018 13:00 2.42 15.7 413.54 0.00 73.8
07/19/2018 12:00 2.42 15.7 413.53 0.00 71.7
07/19/2018 11:00 2.42 15.7 413.53 0.00 70.7
07/19/2018 10:00 2.42 15.7 413.54 0.00 66.2
07/19/2018 09:00 2.42 15.7 413.54 0.00 61.2
07/19/2018 08:00 2.42 15.7 413.53 0.00 57.0
07/19/2018 07:00 2.42 15.7 413.54 0.00 53.3
07/19/2018 06:00 2.42 15.7 413.53 0.00 53.0
07/19/2018 05:00 2.42 15.7 413.54 0.00 54.0
07/19/2018 04:00 2.42 15.7 413.53 0.00 55.3
07/19/2018 03:00 2.42 15.7 413.54 0.00 56.4
07/19/2018 02:00 2.42 15.7 413.53 0.00 58.4
07/19/2018 01:00 2.42 15.7 413.54 0.00 59.4
07/19/2018 00:00 2.42 15.7 413.54 0.00 60.3
07/18/2018 23:00 2.42 15.7 413.54 0.00 62.5
07/18/2018 22:00 2.42 15.7 413.53 0.00 65.8
07/18/2018 21:00 2.42 15.7 413.54 0.00 69.0
07/18/2018 20:00 2.42 15.7 413.54 0.00 72.9
07/18/2018 19:00 2.42 15.7 413.53 0.00 75.4
07/18/2018 18:00 2.42 15.7 413.54 0.00 76.0
07/18/2018 17:00 2.42 15.7 413.54 0.00 76.0
07/18/2018 16:00 2.42 15.7 413.54 0.00 74.6
07/18/2018 15:00 2.42 15.7 413.54 0.00 74.5
07/18/2018 14:00 2.42 15.7 413.55 0.00 73.7
07/18/2018 13:00 2.42 15.7 413.55 0.00 72.8
07/18/2018 12:00 2.42 15.7 413.55 0.00 71.3
07/18/2018 11:00 2.42 15.7 413.56 0.00 70.0
07/18/2018 10:00 2.42 15.7 413.55 0.00 68.7
07/18/2018 09:00 2.41 15.1 413.56 0.00 67.9
07/18/2018 08:00 2.41 15.1 413.56 0.00 66.9
07/18/2018 07:00 2.41 15.1 413.55 0.00 63.9
07/18/2018 06:00 2.41 15.1 413.55 0.00 65.1
07/18/2018 05:00 2.41 15.1 413.55 0.00 66.7
07/18/2018 04:00 2.41 15.1 413.55 0.00 68.3
07/18/2018 03:00 2.41 15.1 413.55 0.00 68.3
07/18/2018 02:00 2.41 15.1 413.55 0.00 68.8
07/18/2018 01:00 2.41 15.1 413.54 0.00 68.9
07/18/2018 00:00 2.41 15.1 413.55 0.00 69.2
07/17/2018 23:00 2.41 15.1 413.55 0.00 69.4
07/17/2018 22:00 2.41 15.1 413.53 0.00 69.4
07/17/2018 21:00 2.41 15.1 413.54 0.00 69.3
07/17/2018 20:00 2.41 15.1 413.54 0.00 69.2
07/17/2018 19:00 2.41 15.1 413.53 0.00 69.3
07/17/2018 18:00 2.41 15.1 413.52 0.00 69.4
07/17/2018 17:00 2.41 15.1 413.53 0.00 70.1
07/17/2018 16:00 2.41 15.1 413.52 0.00 71.2
07/17/2018 15:00 2.41 15.1 413.52 0.00 73.3
07/17/2018 14:00 2.41 15.1 413.50 0.00 73.1
07/17/2018 13:00 2.41 15.1 413.49 0.00 77.8
07/17/2018 12:00 2.41 15.1 413.48 0.00 79.7
07/17/2018 11:00 2.41 15.1 413.50 0.00 76.8
07/17/2018 10:00 2.41 15.1 413.48 0.00 72.4
07/17/2018 09:00 2.41 15.0 413.48 0.00 72.2
07/17/2018 08:00 2.41 15.0 413.48 0.00 71.9
07/17/2018 07:00 2.41 14.9 413.48 0.00 71.7
07/17/2018 06:00 2.41 14.9 413.48 0.00 71.5
07/17/2018 05:00 2.41 14.8 413.48 0.00 71.2
07/17/2018 04:00 2.40 14.8 413.48 0.00 71.0
07/17/2018 03:00 2.40 14.7 413.48 0.00 70.7
07/17/2018 02:00 2.40 14.7 413.48 0.00 70.5
07/17/2018 01:00 2.40 14.6 413.48 0.00 70.3
07/17/2018 00:00 2.40 14.6 413.48 0.00 70.0
07/16/2018 23:00 2.40 14.5 413.48 0.00 69.8
07/16/2018 22:00 2.41 15.1 413.49 0.00 72.2
07/16/2018 21:00 2.41 15.1 413.49 0.00 75.0
07/16/2018 20:00 2.40 14.5 413.49 0.00 78.1
07/16/2018 19:00 2.40 14.5 413.48 0.00 81.3
07/16/2018 18:00 2.40 14.5 413.49 0.00 82.5
07/16/2018 17:00 2.40 14.5 413.48 0.00 83.2
07/16/2018 16:00 2.40 14.5 413.49 0.00 83.0
07/16/2018 15:00 2.40 14.5 413.49 0.00 81.8
07/16/2018 14:00 2.40 14.5 413.49 0.00 80.2
07/16/2018 13:00 2.40 14.5 413.49 0.00 78.5
07/16/2018 12:00 2.40 14.5 413.50 0.00 78.1
07/16/2018 11:00 2.40 14.5 413.50 0.00 76.2
07/16/2018 10:00 2.40 14.5 413.50 0.00 70.3
07/16/2018 09:00 2.40 14.5 413.51 0.00 67.9
07/16/2018 08:00 2.40 14.5 413.50 0.00 66.6
07/16/2018 07:00 2.40 14.5 413.51 0.00 66.9
07/16/2018 06:00 2.40 14.5 413.51 0.00 67.5
07/16/2018 05:00 2.40 14.5 413.51 0.00 66.4
07/16/2018 04:00 2.40 14.5 413.50 0.00 66.6
07/16/2018 03:00 2.40 14.5 413.51 0.00 65.5
07/16/2018 02:00 2.40 14.5 413.50 0.00 64.6
07/16/2018 01:00 2.39 13.9 413.50 0.00 66.1
07/16/2018 00:00 2.40 14.5 413.50 0.00 66.3
07/15/2018 23:00 2.39 13.9 413.51 0.00 67.7
07/15/2018 22:00 2.40 14.5 413.50 0.00 69.3
07/15/2018 21:00 2.40 14.5 413.51 0.00 72.6
07/15/2018 20:00 2.40 14.5 413.51 0.00 74.8
07/15/2018 19:00 2.39 13.9 413.50 0.00 76.7
07/15/2018 18:00 2.39 13.9 413.50 0.00 75.6
07/15/2018 17:00 2.40 14.5 413.49 0.08 74.6
07/15/2018 16:00 2.41 15.1 413.51 0.00 73.7
07/15/2018 15:00 2.40 14.5 413.49 0.00 78.3
07/15/2018 14:00 2.40 14.5 413.49 0.00 75.9
07/15/2018 13:00 2.40 14.5 413.50 0.00 74.8
07/15/2018 12:00 2.40 14.5 413.50 0.00 71.2
07/15/2018 11:00 2.40 14.5 413.50 0.00 69.1
07/15/2018 10:00 2.39 13.9 413.50 0.00 67.5
07/15/2018 09:00 2.39 13.9 413.50 0.00 66.7
07/15/2018 08:00 2.39 13.9 413.51 0.00 64.1
07/15/2018 07:00 2.39 13.9 413.51 0.00 63.3
07/15/2018 06:00 2.39 13.9 413.50 0.00 63.4
07/15/2018 05:00 2.39 13.9 413.51 0.00 63.3
07/15/2018 04:00 2.39 13.9 413.50 0.00 63.0
07/15/2018 03:00 2.40 14.5 413.50 0.00 63.2
07/15/2018 02:00 2.40 14.5 413.50 0.00 62.6
07/15/2018 01:00 2.40 14.5 413.50 0.00 62.8
07/15/2018 00:00 2.39 13.9 413.50 0.00 63.2
07/14/2018 23:00 2.40 14.5 413.50 0.00 63.5
07/14/2018 22:00 2.40 14.5 413.50 0.00 64.4
07/14/2018 21:00 2.40 14.5 413.50 0.00 65.5
07/14/2018 20:00 2.40 14.5 413.50 0.00 67.7
07/14/2018 19:00 2.39 13.9 413.49 0.00 68.9
07/14/2018 18:00 2.39 13.9 413.49 0.00 69.9
07/14/2018 17:00 2.39 13.9 413.50 0.00 71.0
07/14/2018 16:00 2.39 13.9 413.50 0.00 71.4
07/14/2018 15:00 2.39 13.9 413.50 0.00 72.2
07/14/2018 14:00 2.39 13.9 413.50 0.00 72.2
07/14/2018 13:00 2.39 13.9 413.50 0.00 71.2
07/14/2018 12:00 2.39 13.9 413.50 0.00 68.6
07/14/2018 11:00 2.39 13.9 413.50 0.00 67.0
07/14/2018 10:00 2.39 13.9 413.50 0.00 63.1
07/14/2018 09:00 2.39 13.9 413.51 0.00 61.6
07/14/2018 08:00 2.39 13.9 413.51 0.00 59.2
07/14/2018 07:00 2.39 13.9 413.51 0.00 57.8
07/14/2018 06:00 2.40 14.5 413.51 0.00 56.8
07/14/2018 05:00 2.40 14.5 413.52 0.00 57.6
07/14/2018 04:00 2.40 14.5 413.51 0.00 58.7
07/14/2018 03:00 2.40 14.5 413.52 0.00 59.8
07/14/2018 02:00 2.40 14.5 413.52 0.00 60.6
07/14/2018 01:00 2.40 14.5 413.51 0.00 62.0
07/14/2018 00:00 2.40 14.5 413.51 0.00 62.4
07/13/2018 23:00 2.40 14.5 413.51 0.00 64.0
07/13/2018 22:00 2.40 14.5 413.51 0.00 65.3
07/13/2018 21:00 2.40 14.5 413.51 0.00 67.1
07/13/2018 20:00 2.40 14.5 413.51 0.00 69.3
07/13/2018 19:00 2.40 14.5 413.51 0.00 72.5
07/13/2018 18:00 2.40 14.5 413.51 0.00 74.5
07/13/2018 17:00 2.40 14.5 413.51 0.00 75.6
07/13/2018 16:00 2.40 14.5 413.51 0.00 77.5
07/13/2018 15:00 2.39 13.9 413.52 0.00 76.4
07/13/2018 14:00 2.39 13.9 413.51 0.00 75.2
07/13/2018 13:00 2.40 14.5 413.52 0.00 75.2
07/13/2018 12:00 2.40 14.5 413.52 0.00 73.0
07/13/2018 11:00 2.40 14.5 413.52 0.00 70.9
07/13/2018 10:00 2.40 14.5 413.53 0.00 67.0
07/13/2018 09:00 2.40 14.5 413.52 0.00 64.2
07/13/2018 08:00 2.40 14.5 413.53 0.00 62.4
07/13/2018 07:00 2.40 14.5 413.53 0.00 59.1
07/13/2018 06:00 2.40 14.5 413.53 0.00 59.6
07/13/2018 05:00 2.40 14.5 413.53 0.00 59.7
07/13/2018 04:00 2.40 14.5 413.53 0.00 61.2
07/13/2018 03:00 2.40 14.5 413.53 0.00 61.5
07/13/2018 02:00 2.39 13.9 413.53 0.00 60.7
07/13/2018 01:00 2.39 13.9 413.53 0.00 61.6
07/13/2018 00:00 2.39 13.9 413.53 0.00 64.7
07/12/2018 23:00 2.39 13.9 413.53 0.00 66.2
07/12/2018 22:00 2.40 14.5 413.53 0.00 67.2
07/12/2018 21:00 2.40 14.5 413.53 0.00 70.2
07/12/2018 20:00 2.39 13.9 413.52 0.00 72.8
07/12/2018 19:00 2.39 13.9 413.52 0.00 75.3
07/12/2018 18:00 2.39 13.9 413.53 0.00 76.8
07/12/2018 17:00 2.39 13.9 413.53 0.00 76.5
07/12/2018 16:00 2.39 13.9 413.54 0.00 77.2
07/12/2018 15:00 2.39 13.9 413.54 0.00 76.0
07/12/2018 14:00 2.40 14.5 413.55 0.00 76.4
07/12/2018 13:00 2.39 13.9 413.54 0.00 75.2
07/12/2018 12:00 2.39 13.9 413.55 0.00 73.7
07/12/2018 11:00 2.39 13.9 413.54 0.00 72.6
07/12/2018 10:00 2.39 13.9 413.54 0.00 69.7
07/12/2018 09:00 2.39 13.9 413.55 0.00 65.9
07/12/2018 08:00 2.39 13.9 413.55 0.00 60.8
07/12/2018 07:00 2.39 13.9 413.55 0.00 57.0
07/12/2018 06:00 2.39 13.9 413.55 0.00 57.2
07/12/2018 05:00 2.39 13.9 413.55 0.00 58.0
07/12/2018 04:00 2.39 13.9 413.55 0.00 59.2
07/12/2018 03:00 2.39 13.9 413.55 0.00 60.8
07/12/2018 02:00 2.39 13.9 413.55 0.00 59.4
07/12/2018 01:00 2.39 13.9 413.55 0.00 60.5
07/12/2018 00:00 2.39 13.9 413.57 0.00 63.0
07/11/2018 23:00 2.39 13.9 413.54 0.00 65.0
07/11/2018 22:00 2.39 13.9 413.56 0.00 67.9
07/11/2018 21:00 2.39 13.9 413.55 0.00 69.3
07/11/2018 20:00 2.39 13.9 413.54 0.00 72.0
07/11/2018 19:00 2.39 13.9 413.54 0.00 74.8
07/11/2018 18:00 2.39 13.9 413.56 0.00 78.0
07/11/2018 17:00 2.39 13.9 413.56 0.00 76.3
07/11/2018 16:00 2.39 13.9 413.57 0.00 76.2
07/11/2018 15:00 2.39 13.9 413.57 0.00 75.6
07/11/2018 14:00 2.39 13.9 413.57 0.00 74.9
07/11/2018 13:00 2.39 13.9 413.58 0.00 73.3
07/11/2018 12:00 2.39 13.9 413.57 0.00 72.3
07/11/2018 11:00 2.39 13.9 413.58 0.00 71.0
07/11/2018 10:00 2.39 13.9 413.59 0.00 69.2
07/11/2018 09:00 2.38 13.4 413.59 0.00 68.5
07/11/2018 08:00 2.39 13.9 413.58 0.00 67.7
07/11/2018 07:00 2.39 13.9 413.58 0.00 68.6
07/11/2018 06:00 2.39 13.9 413.58 0.00 69.1
07/11/2018 05:00 2.39 13.9 413.58 0.00 71.0
07/11/2018 04:00 2.39 13.9 413.58 0.00 71.0
07/11/2018 03:00 2.39 13.9 413.57 0.00 69.6
07/11/2018 02:00 2.39 13.9 413.58 0.00 70.5
07/11/2018 01:00 2.39 13.9 413.58 0.00 70.7
07/11/2018 00:00 2.39 13.9 413.58 0.00 71.0
07/10/2018 23:00 2.39 13.9 413.58 0.00 72.2
07/10/2018 22:00 2.39 13.9 413.57 0.00 75.8
07/10/2018 21:00 2.40 14.5 413.56 0.00 76.6
07/10/2018 20:00 2.40 14.5 413.56 0.00 79.2
07/10/2018 19:00 2.40 14.5 413.58 0.00 83.4
07/10/2018 18:00 2.40 14.5 413.57 0.00 86.7
07/10/2018 17:00 2.40 14.5 413.58 0.00 87.1
07/10/2018 16:00 2.40 14.5 413.58 0.00 87.8
07/10/2018 15:00 2.55 24.9 413.57 0.00 87.1
07/10/2018 14:00 2.55 24.9 413.59 0.00 87.1
07/10/2018 13:00 2.57 26.5 413.58 0.00 84.9
07/10/2018 12:00 2.57 26.5 413.59 0.00 83.3
07/10/2018 11:00 2.57 26.5 413.60 0.00 81.5
07/10/2018 10:00 2.56 25.7 413.58 0.00 78.4
07/10/2018 09:00 2.57 26.5 413.59 0.00 75.2
07/10/2018 08:00 2.57 26.5 413.59 0.00 69.1
07/10/2018 07:00 2.57 26.5 413.60 0.00 68.4
07/10/2018 06:00 2.57 26.5 413.59 0.00 62.3
07/10/2018 05:00 2.57 26.5 413.60 0.00 62.5
07/10/2018 04:00 2.57 26.5 413.59 0.00 63.9
07/10/2018 03:00 2.57 26.5 413.59 0.00 65.0
07/10/2018 02:00 2.57 26.5 413.59 0.00 66.0
07/10/2018 01:00 2.57 26.5 413.59 0.00 67.5
07/10/2018 00:00 2.57 26.5 413.60 0.00 68.2
07/09/2018 23:00 2.57 26.5 413.59 0.00 70.7
07/09/2018 22:00 2.57 26.5 413.60 0.00 73.2
07/09/2018 21:00 2.57 26.5 413.59 0.00 77.7
07/09/2018 20:00 2.57 26.5 413.60 0.00 82.9
07/09/2018 19:00 2.57 26.5 413.59 0.00 87.2
07/09/2018 18:00 2.57 26.5 413.60 0.00 87.5
07/09/2018 17:00 2.57 26.5 413.60 0.00 86.6
07/09/2018 16:00 2.57 26.5 413.60 0.00 86.7
07/09/2018 15:00 2.57 26.5 413.61 0.00 85.9
07/09/2018 14:00 2.57 26.5 413.61 0.00 83.7
07/09/2018 13:00 2.58 27.4 413.62 0.00 82.2
07/09/2018 12:00 2.58 27.4 413.61 0.00 79.4
07/09/2018 11:00 2.57 26.5 413.61 0.00 76.0
07/09/2018 10:00 2.58 27.4 413.61 0.00 73.3
07/09/2018 09:00 2.57 26.5 413.61 0.00 69.3
07/09/2018 08:00 2.57 26.5 413.62 0.00 65.2
07/09/2018 07:00 2.58 27.4 413.61 0.00 64.5
07/09/2018 06:00 2.58 27.4 413.63 0.00 63.0
07/09/2018 05:00 2.58 27.4 413.61 0.00 56.6
07/09/2018 04:00 2.58 27.4 413.62 0.00 58.1
07/09/2018 03:00 2.57 26.5 413.63 0.00 60.3
07/09/2018 02:00 2.56 25.7 413.63 0.00 60.7
07/09/2018 01:00 2.56 25.7 413.63 0.00 62.7
07/09/2018 00:00 2.57 26.5 413.63 0.00 64.4
07/08/2018 23:00 2.56 25.7 413.63 0.00 66.3
07/08/2018 22:00 2.57 26.5 413.63 0.00 68.6
07/08/2018 21:00 2.56 25.7 413.63 0.00 72.9
07/08/2018 20:00 2.56 25.7 413.63 0.00 76.6
07/08/2018 19:00 2.56 25.7 413.61 0.00 79.3
07/08/2018 18:00 2.58 27.4 413.63 0.00 81.7
07/08/2018 17:00 2.58 27.4 413.64 0.00 82.4
07/08/2018 16:00 -- -- -- -- --
07/08/2018 15:00 -- -- -- -- --
07/08/2018 14:00 -- -- -- -- --
07/08/2018 13:00 -- -- -- -- --
07/08/2018 12:00 -- -- -- -- --
07/08/2018 11:00 -- -- -- -- --
07/08/2018 10:00 -- -- -- -- --